| time (UTC) | temp F | wind direction | speed MPH | gust MPH | rain 1hr in | rain 24hr in | rain mn in | humidity % | barometer mb |
| 20260901190055 | 77 | 164 | 12.0 | 25.0 | 0.00 | 0.00 | 0.00 | 23 | 1005.7 |
| 20260901184602 | 76 | 240 | 11.0 | 27.0 | 0.00 | 0.00 | 0.00 | 22 | 1005.9 |
| 20260901183056 | 76 | 252 | 12.0 | 24.0 | 0.00 | 0.00 | 0.00 | 22 | 1006.1 |
| 20260901181553 | 76 | 198 | 16.0 | 27.0 | 0.00 | 0.00 | 0.00 | 23 | 1006.2 |
| 20260901180051 | 75 | 188 | 11.0 | 23.0 | 0.00 | 0.00 | 0.00 | 24 | 1006.2 |
| 20260901174550 | 76 | 184 | 15.0 | 25.0 | 0.00 | 0.00 | 0.00 | 23 | 1006.5 |
| 20260901173047 | 76 | 214 | 15.0 | 23.0 | 0.00 | 0.00 | 0.00 | 23 | 1006.6 |
| 20260901171551 | 75 | 227 | 16.0 | 28.0 | 0.00 | 0.00 | 0.00 | 23 | 1006.4 |
| 20260901170045 | 74 | 158 | 14.0 | 23.0 | 0.00 | 0.00 | 0.00 | 27 | 1006.4 |
| 20260901164544 | 72 | 224 | 8.0 | 15.0 | 0.00 | 0.00 | 0.00 | 32 | 1006.3 |
| 20260901163046 | 71 | 202 | 11.0 | 19.0 | 0.00 | 0.00 | 0.00 | 34 | 1006.5 |
| 20260901161546 | 71 | 210 | 12.0 | 18.0 | 0.00 | 0.00 | 0.00 | 37 | 1006.5 |
| 20260901160051 | 68 | 195 | 5.0 | 12.0 | 0.00 | 0.00 | 0.00 | 42 | 1006.9 |
| 20260901154541 | 67 | 184 | 7.0 | 14.0 | 0.00 | 0.00 | 0.00 | 43 | 1007.1 |
| 20260901153039 | 66 | 187 | 4.0 | 10.0 | 0.00 | 0.00 | 0.00 | 46 | 1007.4 |
| 20260901151536 | 63 | 206 | 5.0 | 11.0 | 0.00 | 0.00 | 0.00 | 48 | 1007.6 |
| 20260901150036 | 61 | 289 | 1.0 | 3.0 | 0.00 | 0.00 | 0.00 | 50 | 1007.8 |
| 20260901144538 | 60 | 198 | 2.0 | 6.0 | 0.00 | 0.00 | 0.00 | 50 | 1007.8 |
| 20260901143004 | 59 | 213 | 4.0 | 7.0 | 0.00 | 0.00 | 0.00 | 52 | 1007.9 |
| 20260901141505 | 56 | 212 | 2.0 | 5.0 | 0.00 | 0.00 | 0.00 | 56 | 1007.8 |
| 20260901134620 | 50 | 49 | 1.0 | 4.0 | 0.00 | 0.00 | 0.00 | 64 | 1008.0 |
| 20260901133057 | 50 | 82 | 0.0 | 0.0 | 0.00 | 0.00 | 0.00 | 66 | 1007.9 |
| 20260901131556 | 49 | 86 | 0.0 | 1.0 | 0.00 | 0.00 | 0.00 | 63 | 1007.9 |
| 20260901130030 | 50 | 157 | 0.0 | 0.0 | 0.00 | 0.00 | 0.00 | 64 | 1007.8 |
| 20260901124526 | 51 | 134 | 0.0 | 0.0 | 0.00 | 0.00 | 0.00 | 62 | 1007.6 |
| 20260901123050 | 52 | 66 | 0.0 | 0.0 | 0.00 | 0.00 | 0.00 | 60 | 1007.7 |
| 20260901121555 | 53 | 69 | 1.0 | 2.0 | 0.00 | 0.00 | 0.00 | 56 | 1007.7 |
| 20260901120058 | 54 | 72 | 2.0 | 3.0 | 0.00 | 0.00 | 0.00 | 57 | 1007.7 |
| 20260901114546 | 52 | 67 | 0.0 | 3.0 | 0.00 | 0.00 | 0.00 | 59 | 1007.6 |
| 20260901113108 | 51 | 79 | 0.0 | 2.0 | 0.00 | 0.00 | 0.00 | 61 | 1007.7 |
| 20260901111543 | 48 | 67 | 0.0 | 2.0 | 0.00 | 0.00 | 0.00 | 62 | 1007.8 |
| 20260901110052 | 50 | 58 | 0.0 | 1.0 | 0.00 | 0.00 | 0.00 | 60 | 1007.7 |
| 20260901104533 | 52 | 81 | 0.0 | 1.0 | 0.00 | 0.00 | 0.00 | 58 | 1007.4 |
| 20260901103028 | 52 | 148 | 0.0 | 3.0 | 0.00 | 0.00 | 0.00 | 57 | 1007.4 |
| 20260901101538 | 53 | 147 | 0.0 | 0.0 | 0.00 | 0.00 | 0.00 | 57 | 1007.6 |
| 20260901100021 | 54 | 97 | 0.0 | 1.0 | 0.00 | 0.00 | 0.00 | 54 | 1007.6 |
| 20260901094519 | 55 | 70 | 0.0 | 2.0 | 0.00 | 0.00 | 0.00 | 52 | 1007.3 |
| 20260901093023 | 56 | 49 | 0.0 | 2.0 | 0.00 | 0.00 | 0.00 | 50 | 1007.3 |
| 20260901091518 | 58 | 55 | 0.0 | 3.0 | 0.00 | 0.00 | 0.00 | 48 | 1007.3 |
| 20260901090016 | 55 | 54 | 0.0 | 3.0 | 0.00 | 0.00 | 0.00 | 52 | 1007.4 |
| 20260901084547 | 55 | 53 | 0.0 | 2.0 | 0.00 | 0.00 | 0.00 | 52 | 1007.3 |
| 20260901083043 | 54 | 54 | 0.0 | 2.0 | 0.00 | 0.00 | 0.00 | 52 | 1007.5 |
| 20260901081542 | 55 | 63 | 0.0 | 2.0 | 0.00 | 0.00 | 0.00 | 50 | 1007.4 |
| 20260901080043 | 57 | 150 | 0.0 | 2.0 | 0.00 | 0.00 | 0.00 | 47 | 1007.4 |
| 20260901074537 | 56 | 216 | 0.0 | 2.0 | 0.00 | 0.00 | 0.00 | 50 | 1007.4 |
| 20260901073040 | 56 | 149 | 0.0 | 0.0 | 0.00 | 0.00 | 0.00 | 49 | 1007.3 |
| 20260901071530 | 59 | 53 | 0.0 | 3.0 | 0.00 | 0.00 | 0.00 | 44 | 1007.0 |
| 20260901070029 | 59 | 145 | 0.0 | 0.0 | 0.00 | 0.00 | 0.00 | 45 | 1006.9 |
| 20260901064528 | 59 | 146 | 0.0 | 4.0 | 0.00 | 0.00 | 0.00 | 44 | 1007.0 |
| 20260901063021 | 60 | 229 | 1.0 | 5.0 | 0.00 | 0.00 | 0.00 | 43 | 1006.9 |
| 20260901061514 | 62 | 209 | 4.0 | 8.0 | 0.00 | 0.00 | 0.00 | 41 | 1006.8 |
| 20260901060010 | 64 | 243 | 3.0 | 10.0 | 0.00 | 0.00 | 0.00 | 39 | 1007.0 |
| 20260901054509 | 65 | 223 | 5.0 | 9.0 | 0.00 | 0.00 | 0.00 | 38 | 1006.9 |
| 20260901053008 | 63 | 248 | 1.0 | 7.0 | 0.00 | 0.00 | 0.00 | 39 | 1006.8 |
| 20260901051502 | 65 | 53 | 4.0 | 6.0 | 0.00 | 0.00 | 0.00 | 36 | 1006.4 |
| 20260901050059 | 68 | 76 | 0.0 | 2.0 | 0.00 | 0.00 | 0.00 | 31 | 1006.5 |
| 20260901044616 | 69 | 188 | 0.0 | 6.0 | 0.00 | 0.00 | 0.00 | 30 | 1006.4 |
| 20260901043054 | 69 | 181 | 2.0 | 5.0 | 0.00 | 0.00 | 0.00 | 31 | 1006.5 |
| 20260901041521 | 70 | 153 | 4.0 | 9.0 | 0.00 | 0.00 | 0.00 | 30 | 1006.5 |
| 20260901040020 | 70 | 252 | 2.0 | 9.0 | 0.00 | 0.00 | 0.00 | 31 | 1006.6 |
| 20260901034517 | 70 | 205 | 3.0 | 11.0 | 0.00 | 0.00 | 0.00 | 31 | 1006.5 |
| 20260901033015 | 70 | 195 | 3.0 | 9.0 | 0.00 | 0.00 | 0.00 | 32 | 1006.5 |
| 20260901031514 | 70 | 164 | 4.0 | 10.0 | 0.00 | 0.00 | 0.00 | 33 | 1006.5 |
| 20260901030015 | 71 | 196 | 4.0 | 10.0 | 0.00 | 0.00 | 0.00 | 32 | 1006.4 |
| 20260901024502 | 71 | 132 | 5.0 | 11.0 | 0.00 | 0.00 | 0.00 | 32 | 1006.4 |
| 20260901023100 | 72 | 227 | 6.0 | 10.0 | 0.00 | 0.00 | 0.00 | 30 | 1006.4 |
| 20260901021616 | 74 | 217 | 4.0 | 16.0 | 0.00 | 0.00 | 0.00 | 28 | 1006.3 |
| 20260901020110 | 76 | 156 | 0.0 | 5.0 | 0.00 | 0.00 | 0.00 | 26 | 1005.8 |
| 20260901014551 | 77 | 73 | 0.0 | 1.0 | 0.00 | 0.00 | 0.00 | 26 | 1005.7 |
| 20260901013047 | 78 | 138 | 0.0 | 3.0 | 0.00 | 0.00 | 0.00 | 24 | 1005.8 |
| 20260901011544 | 78 | 133 | 0.0 | 4.0 | 0.00 | 0.00 | 0.00 | 24 | 1006.0 |
| 20260901010043 | 79 | 78 | 0.0 | 10.0 | 0.00 | 0.00 | 0.00 | 23 | 1006.0 |
| 20260901004510 | 79 | 124 | 0.0 | 8.0 | 0.00 | 0.00 | 0.00 | 23 | 1006.0 |
| 20260901003007 | 78 | 118 | 2.0 | 6.0 | 0.00 | 0.00 | 0.00 | 24 | 1006.2 |
| 20260901001503 | 78 | 102 | 1.0 | 14.0 | 0.00 | 0.00 | 0.00 | 24 | 1006.3 |
| 20260901000104 | 79 | 201 | 6.0 | 13.0 | 0.00 | 0.00 | 0.00 | 22 | 1006.4 |
| 20260831234610 | 79 | 224 | 6.0 | 13.0 | 0.00 | 0.00 | 0.00 | 22 | 1006.3 |
| 20260831233100 | 80 | 234 | 8.0 | 15.0 | 0.00 | 0.00 | 0.00 | 21 | 1006.2 |
| 20260831231605 | 82 | 170 | 9.0 | 17.0 | 0.00 | 0.00 | 0.00 | 19 | 1006.1 |
| 20260831230056 | 83 | 207 | 10.0 | 15.0 | 0.00 | 0.00 | 0.00 | 17 | 1005.8 |
| 20260831224553 | 85 | 210 | 7.0 | 16.0 | 0.00 | 0.00 | 0.00 | 16 | 1005.9 |
| 20260831223052 | 85 | 218 | 3.0 | 11.0 | 0.00 | 0.00 | 0.00 | 16 | 1006.0 |
| 20260831221549 | 85 | 248 | 5.0 | 11.0 | 0.00 | 0.00 | 0.00 | 16 | 1006.2 |
| 20260831220107 | 84 | 157 | 1.0 | 11.0 | 0.00 | 0.00 | 0.00 | 17 | 1006.4 |
| 20260831214548 | 84 | 242 | 5.0 | 9.0 | 0.00 | 0.00 | 0.00 | 16 | 1006.6 |
| 20260831213044 | 85 | 214 | 2.0 | 11.0 | 0.00 | 0.00 | 0.00 | 16 | 1006.7 |
| 20260831211552 | 85 | 144 | 4.0 | 11.0 | 0.00 | 0.00 | 0.00 | 16 | 1006.9 |
| 20260831210047 | 85 | 165 | 4.0 | 12.0 | 0.00 | 0.00 | 0.00 | 16 | 1007.2 |
| 20260831204536 | 84 | 207 | 5.0 | 15.0 | 0.00 | 0.00 | 0.00 | 17 | 1007.7 |
| 20260831203032 | 84 | 193 | 7.0 | 15.0 | 0.00 | 0.00 | 0.00 | 18 | 1007.9 |
| 20260831201539 | 83 | 142 | 6.0 | 19.0 | 0.00 | 0.00 | 0.00 | 18 | 1008.2 |
| 20260831200032 | 83 | 281 | 2.0 | 12.0 | 0.00 | 0.00 | 0.00 | 18 | 1008.6 |
| 20260831194540 | 83 | 153 | 2.0 | 7.0 | 0.00 | 0.00 | 0.00 | 19 | 1009.0 |
| 20260831193026 | 81 | 54 | 1.0 | 7.0 | 0.00 | 0.00 | 0.00 | 19 | 1009.3 |
| 20260831191523 | 79 | 20 | 1.0 | 5.0 | 0.00 | 0.00 | 0.00 | 19 | 1009.7 |